www.pogodaiklimat.ru

Погода и климат >> Архив погоды >> Монголия >> Цэцэрлэг


ПОГОДА в Цэцэрлэге

  • Прогноз погоды в Цэцэрлэге
  • Монитор погоды в Цэцэрлэге

АРХИВ ПОГОДЫ в Цэцэрлэге

Время (UTC), дата Ветер
(напр.,м/с)
 
Видим.   Явления Облачность Т
(С)
Тd
(С)
f
(%)
Тe
(С)
Тes
(С)
Комфортность P
(гПа)
Po
(гПа)
Тmin
(С)
Tmax
(С)
R
(мм)
R24
(мм)
S
(см)
03 13.09 С 4 50 км 8/8 1000 м
[Cu med, cong]
+8.6 -3.9 41 +6 +7 1020.3 831.2
06 13.09 СЗ 3 50 км 5/5 1000 м
[Cu med, cong]
+12.9 -4.7 29 +12 +16 1014.4 828.9
09 13.09 СЗ 3 50 км 3/3 1000 м
[Cu hum]
+15.1 -8.0 20 +15 +17 1010.7 827.2
12 13.09 Ю 1 50 км 3/0
[Ac lent]
+10.3 -3.7 37 +11 +11 1014.0 827.0 +15.2
15 13.09 СЗ 1 50 км ясно +5.8 -2.2 56 +5 +5 1011.7 827.3
18 13.09 З 1 50 км ясно +4.4 -5.2 50 +4 +4 1020.0 828.3
21 13.09 СЗ 1 50 км ясно +1.4 -6.2 57 0 0 1021.6 827.8
00 14.09 С 1 50 км 8/0
[Ac lent Cs]
+4.0 -6.0 48 +3 +4 1020.3 828.4 -0.1
03 14.09 ЮЗ 1 50 км 9/0
[Cs]
+11.0 -7.3 27 +11 +19 1015.0 828.3
06 14.09 З 5 50 км 9/8 1000 м
[Cb calv Ac lent]
+13.5 -10.4 18 +12 +13 1011.3 826.7
09 14.09 СЗ 5-16
{16}
20 км слаб. ливневой дождь 9/9 600 м
[Cb calv]
+10.7 -3.5 37 +8 +9 1014.0 827.4
12 14.09 З 5 50 км {ливн. осадки} 8/8 600 м
[Sc]
+10.1 -6.1 31 +8 +8 1015.4 828.1 +14.4 0.0
15 14.09 СЗ 2 50 км 1/0
[Ac lent]
+5.8 -5.4 44 +4 +4 1022.5 831.3
18 14.09 СЗ 3 50 км ясно +3.3 -6.7 48 0 0 1025.6 832.2
21 14.09 СЗ 2 50 км ясно +0.7 -7.0 56 -2 -2 1028.0 832.5
00 15.09 ЮЗ 6 50 км ясно +2.0 -7.3 50 -3 -3 1028.0 833.4 -0.7
03 15.09 СЗ 3 50 км 1/1 1000 м
[Cu hum]
+10.2 -7.7 28 +9 +14 1021.6 833.2
06 15.09 З 3 50 км 4/4 600 м
[Cu med, cong]
+14.1 -7.9 21 +14 +19 1016.2 831.1
09 15.09 СЗ 4 50 км 8/8 600 м
[Cb calv]
+15.5 -9.9 16 +15 +15 1013.1 829.4
12 15.09 Ю 3 50 км 8/3 600 м
[Cb calv Ac trans]
+11.9 -6.4 27 +11 +11 1016.3 829.8 +15.8
15 15.09 З 1 50 км 3/0
[Ac lent]
+6.8 -7.2 36 +7 +7 1020.8 830.5
18 15.09 СЗ 1 50 км 1/0
[Ac lent]
+3.5 -7.1 46 +3 +3 1023.4 830.6
21 15.09 СЗ 2 50 км ясно +2.4 -7.8 47 0 0 1024.2 830.5
00 16.09 СЗ 1 50 км ясно +3.4 -6.7 48 +3 +3 1024.4 831.3 +0.7
03 16.09 СЗ 4 50 км 3/1 1000 м
[Cu hum Ac lent Ci fib]
+12.4 -7.2 25 +11 +15 1018.4 831.8
06 16.09 СЗ 4 50 км 8/4 1000 м
[Cu med, cong Ac lent Ci]
+14.2 -7.6 21 +13 +16 1015.8 830.8
09 16.09 СЗ 5 50 км 6/5 1000 м
[Cu med, cong Ci fib]
+15.6 -7.6 20 +15 +15 1014.1 830.2
12 16.09 СЗ 3 50 км 8/0
[Ac lent Cs]
+11.7 -7.2 26 +11 +11 1018.9 831.9 +15.7
15 16.09 ЮЗ 1 50 км 6/0
[Cs]
+6.6 -5.9 40 +6 +6 1026.2 834.8
18 16.09 СЗ 1 50 км ясно +3.1 -5.7 52 +2 +2 1030.8 836.3
21 16.09 СЗ 1 50 км ясно +1.4 -5.8 59 0 0 1033.0 837.1
00 17.09 С 2 20 км дым {туман} ясно +3.4 -4.9 55 +1 +1 1033.1 838.3 +0.5
03 17.09 З 2 50 км {туман} ясно +11.8 -5.2 30 +11 +19 1027.5 838.9
06 17.09 ЮЗ 3 50 км {туман} 3/3 1000 м
[Cu hum]
+15.6 -5.8 22 +15 +21 1022.7 837.4
09 17.09 З 4 50 км 3/3 1000 м
[Cu hum]
+16.7 -5.3 22 +16 +18 1020.3 835.9
12 17.09 ЮЗ 1 50 км 8/0
[Ac lent Cs]
+11.6 -4.0 33 +12 +12 1024.5 836.4 +17.1
15 17.09 СЗ 1 50 км 6/0
[Cs]
+7.8 -3.4 45 +8 +8 1028.4 837.3
18 17.09 СЗ 2 50 км 9/0
[Ac lent Cs]
+7.5 -4.9 41 +6 +6 1028.0 836.7
21 17.09 СЗ 3 50 км 4/0
[Ac lent Ci]
+8.1 -8.3 30 +6 +6 1026.9 836.2
00 18.09 СЗ 1 50 км 9/0
[Ac lent Cs]
+9.4 -7.2 30 +10 +10 1026.4 836.6 +6.8
03 18.09 ЮЗ 6 50 км 9/0
[Ac lent]
+16.3 -8.1 18 +15 +16 1021.1 836.4
06 18.09 СЗ 6 50 км 9/3 1000 м
[Cu med, cong Ac lent Cs]
+18.3 -9.3 14 +18 +19 1017.8 834.8
09 18.09 З 5
{13}
50 км {метель} 9/9 600 м
[Sc]
+19.0 -8.1 15 +19 +19 1015.7 833.4
12 18.09 З 2 50 км {метель} 10/10 600 м
[Sc]
+15.2 -3.4 28 +15 +15 1019.7 834.6 +20.4
15 18.09 СЗ 5 50 км 8/0
[Ac lent Ci]
+12.4 -0.9 40 +11 +11 1022.8 835.5
18 18.09 З 2 50 км 8/0
[Ac lent Cs]
+10.3 -0.6 47 +9 +9 1024.4 835.6
21 18.09 СЗ 2 50 км 9/0
[Ac trans Cs]
+9.0 +0.2 54 +8 +8 1024.9 835.1
00 19.09 З 2 50 км 9/9 600 м
[Sc]
+10.0 +0.2 51 +9 +9 1025.5 836.2 +8.6
03 19.09 СЗ 3 50 км 8/5 600 м
[Cu med, cong Ac cast]
+14.2 -1.9 33 +14 +15 1022.8 836.6
06 19.09 З 3 50 км 8/8 600 м
[Cb calv]
+17.2 -2.8 25 +17 +19 1019.4 835.5
09 19.09 СЗ 5 50 км 8/8 600 м
[Cb calv]
+18.2 -4.4 21 +18 +18 1017.9 834.8
12 19.09 З 3 50 км 3/0
[Ac lent]
+12.8 -5.1 28 +12 +12 1023.3 836.1 +18.8
15 19.09 С 2 50 км 1/0
[Ci]
+8.1 -4.1 42 +7 +7 1028.7 837.7
18 19.09 СЗ 1 50 км 3/0
[Ci]
+5.9 -4.1 49 +5 +5 1030.4 837.8
21 19.09 СЗ 2 50 км ясно +5.3 -4.7 48 +3 +3 1030.6 837.5
00 20.09 З 1 50 км ясно +6.3 -3.1 51 +6 +6 1030.3 837.9 +3.3

 

Местоположение метеостанции Цэцэрлэг (Монголия): широта 47.45 долгота 101.46 высота над уровнем моря 1691 м.

В архиве по умолчанию представлена погода в Цэцэрлэге за последнюю неделю. Архивные данные за месяц целиком и за предыдущие месяцы, начиная с января 2011 года, Вы можете получить, выбрав интересующий диапазон дат из раскрывающегося списка и нажав кнопку "Ввод!".


*Определитесь, кто Вы:
робот инопланетянин человек

Внимание! Время в таблицах - всемирное. Для получения местного времени необходимо прибавить поправку, которая равна 8 ч.

Смотрите также архив погоды в соседних городах и на ближайших метеорологических станциях:

Погода в Хужирте (Монголия) (116 км)
Погода в Эрдэнэмандале (Монголия) (120 км)
Погода в Галууте (Монголия) (131 км)
Погода в Баянхонгоре (Монголия) (158 км)
Погода в Тариате (Монголия) (159 км)
Погода в Арвайхээре (Монголия) (165 км)
Погода в Бат Олжий Вунд (Монголия) (185 км)
Погода в Булгане (Монголия) (216 км)
Погода в Хутаге (Монголия) (233 км)
Погода ву Тариалане (Монголия) (239 км)

Пояснения к столбцам:

Ветер - указаны скорость ветра в м/с - средняя за 10 мин, порывы в срок и между сроками (в фигурных скобках) и направление, откуда дует ветер: С - северный, СВ - северо-восточный, В - восточный, ЮВ - юго-восточный, Ю - южный, ЮЗ - юго-западный, З - западный, СЗ - северо-западный.
Видимость - горизонтальная дальность видимости в метрах или километрах. При видимости от 1 до 10 км при отсутствии осадков обычно наблюдается дымка, при ухудшении видимости до 1 км и менее - туман. В сухую погоду видимость может ухудшаться дымом, пылью или мглою.
Явления - указаны атмосферные явления, наблюдавшиеся в срок или в последний час перед сроком; фигурными скобками обозначены явления, наблюдавшиеся между сроками (за 1-3 часа до срока); квадратными скобками обозначены град или гололедные отложения с указанием их диаметра в мм.
Облачность - указаны через наклонную черту общая и нижняя облачность в баллах и высота нижней границы облаков в метрах; квадратными скобками обозначены формы облаков: Ci - перистые, Cs - перисто-слоистые, Cc - перисто-кучевые, Ac - высококучевые, As - высокослоистые, Sc - слоисто-кучевые, Ns - слоисто-дождевые, Cu - кучевые, Cb - кучево-дождевые. Подробнее классификацию облаков см. в Атласе облаков (PDF).
T - Температура воздуха - температура, измеренная на высоте 2 м над землей.
Td - Температура точки росы - температура, при понижении до которой содержащийся в воздухе водяной пар достигнет насыщения.
f - Относительная влажность воздуха - влажноcть воздуха, измеренная на высоте 2 м над землей.
Te - Эффективная температура - температура, которую ощущает одетый по сезону человек в тени. Характеристика душности погоды. При расчете учитывается влияние влажности воздуха и скорости ветра на теплоощущения человека.
Tes - Эффективная температура на солнце - температура, которую ощущает человек, с поправкой на солнечный нагрев. Характеристика знойности погоды. Зависит от высоты солнца над горизонтом, облачности и скорости ветра. Ночью, в пасмурную погоду, а также при ветре 12 м/с и более поправка равна нулю.
P - Атмосферное давление - приведенное к уровню моря атмосферное давление.
Po - Атмосферное давление - измеренное на уровне метеостанции атмосферное давление.
Tmin - Минимальная температура - минимум температуры воздуха на высоте 2 м над землей.
Tmax - Максимальная температура - максимум температуры воздуха на высоте 2 м над землей.
R - Количество осадков - Количество выпавших осадков за период времени, мм. При наведении курсора мыши на число - период времени, за который выпало указанное количество осадков.
R24 - Количество осадков - Количество выпавших осадков за 24 часа, мм.
S - Снежный покров - Высота снежного покрова, см. При наведении курсора мыши на число - состояние снежного покрова и степень покрытия местности в баллах.